Date String (YYYY-MM-DD hh:mm:ss) UTC,Instrument flags,absolute air pressure of the measurement (hPa),sample flow rate (lpm),inlet stack bypass flow (lpm),air temperature of the measurement (°C),ambient temperature measured by the external sensor (°C),aerosol sample conditioner tube jacket temperature (°C),OPC LED temperature (°C),internal box temperature (°C),relative humidity of the measurement (%),span deviation,mass concentration of particles derived from Lorenz-Mie calculation of OPC scattering (μg/m³),mass concentration of particles derived from Lorenz-Mie calculation of OPC scattering (μg/m³),mass concentration of particles derived from Lorenz-Mie calculation of OPC scattering (μg/m³)
DateTimeUTC,F1_M11,P_M11,Q1_M11,Q2_M11,T1_M11,T2_M11,T3_M11,T4_M11,T5_M11,U1_M11,ZSPAN_M11,X2_M11,X0_M11,X1_M11
2023-08-21 14:00:00,SystemResetWarning,0835.9,5.00,000.00,028.3,025.3,000.0,036.8,029.7,22.0,0001.4,0006.62,0014.20,0005.77
2023-08-21 14:01:00,SystemResetWarning,0835.6,5.00,000.00,028.3,025.6,000.0,036.8,029.8,21.8,0001.6,0006.58,0013.75,0005.73
2023-08-21 14:02:00,SystemResetWarning,0835.6,5.00,000.00,028.3,026.0,000.0,036.8,029.9,21.8,0001.7,0006.48,0013.77,0005.69
2023-08-21 14:03:00,SystemResetWarning,0835.6,5.01,000.00,028.3,026.3,000.0,036.8,030.0,22.2,0001.8,0006.44,0013.50,0005.65
2023-08-21 14:04:00,SystemResetWarning,0835.7,5.00,000.00,028.4,026.5,000.0,036.8,030.0,23.2,0001.9,0006.43,0013.42,0005.60
2023-08-21 14:05:00,SystemResetWarning,0835.6,4.99,000.00,028.4,026.8,000.0,036.8,030.1,21.8,0001.9,0006.37,0012.95,0005.56
2023-08-21 14:06:00,SystemResetWarning,0835.7,5.00,000.00,028.4,026.9,000.0,036.9,030.1,22.2,0002.2,0006.32,0012.20,0005.55
2023-08-21 14:07:00,SystemResetWarning,0835.7,5.00,000.00,028.4,027.1,000.0,036.9,030.2,20.3,0002.2,0006.35,0011.65,0005.55
2023-08-21 14:08:00,SystemResetWarning,0835.8,5.00,000.00,028.5,027.2,000.0,036.9,030.2,21.7,0001.9,0006.33,0011.60,0005.53
2023-08-21 14:09:00,SystemResetWarning,0835.8,4.99,000.00,028.5,027.2,000.0,036.9,030.3,23.9,0001.8,0006.30,0011.49,0005.52
2023-08-21 14:10:00,SystemResetWarning,0835.8,4.99,000.00,028.5,025.9,000.0,036.8,030.1,29.2,0002.1,0006.32,0011.55,0005.53
2023-08-21 14:11:00,SystemResetWarning,0835.7,5.01,000.00,028.4,024.7,000.0,036.7,029.8,27.9,0002.2,0006.28,0011.05,0005.52
2023-08-21 14:12:00,SystemResetWarning,0835.6,5.01,000.00,028.4,024.7,000.0,036.7,029.7,25.5,0002.3,0006.27,0010.78,0005.53
2023-08-21 14:13:00,SystemResetWarning,0835.6,5.01,000.00,028.3,025.0,000.0,036.7,029.6,24.5,0002.3,0006.27,0010.33,0005.51
2023-08-21 14:14:00,SystemResetWarning,0835.6,5.00,000.00,028.3,025.3,000.0,036.7,029.7,23.2,0002.4,0006.30,0010.35,0005.51
2023-08-21 14:15:00,SystemResetWarning,0835.6,5.00,000.00,028.3,025.7,000.0,036.8,029.8,21.8,0002.4,0006.27,0010.12,0005.50
2023-08-21 14:16:00,SystemResetWarning,0835.6,5.00,000.00,028.3,026.0,000.0,036.8,029.9,20.2,0002.0,0006.27,0010.76,0005.49
2023-08-21 14:17:00,SystemResetWarning,0835.7,5.00,000.00,028.3,026.3,000.0,036.8,030.0,20.9,0001.7,0006.28,0010.99,0005.48
2023-08-21 14:18:00,SystemResetWarning,0835.8,4.99,000.00,028.3,026.6,000.0,036.8,030.0,20.1,0001.7,0006.30,0011.82,0005.47
2023-08-21 14:19:00,SystemResetWarning,0835.8,5.00,000.00,028.4,026.8,000.0,036.8,030.1,20.8,0001.5,0006.29,0012.23,0005.45
2023-08-21 14:20:00,SystemResetWarning,0835.9,5.01,000.00,028.4,026.9,000.0,036.8,030.1,25.6,0001.4,0006.29,0012.26,0005.44
2023-08-21 14:21:00,SystemResetWarning,0835.8,5.00,000.00,028.4,027.1,000.0,036.8,030.2,25.1,0001.1,0006.28,0012.34,0005.41
2023-08-21 14:22:00,SystemResetWarning,0835.8,4.99,000.00,028.5,026.3,000.0,036.8,030.1,23.0,0000.8,0006.24,0012.52,0005.37
2023-08-21 14:23:00,SystemResetWarning,0835.8,5.00,000.00,028.4,024.7,000.0,036.7,029.8,23.7,0000.2,0006.24,0012.88,0005.35
2023-08-21 14:24:00,SystemResetWarning,0835.8,5.02,000.00,028.3,024.5,000.0,036.6,029.7,22.5,-000.0,0006.25,0012.92,0005.36
2023-08-21 14:25:00,SystemResetWarning,0835.8,5.00,000.00,028.2,024.8,000.0,036.6,029.6,22.2,-000.0,0006.23,0012.92,0005.36
2023-08-21 14:26:00,SystemResetWarning,0835.8,5.00,000.00,028.2,025.1,000.0,036.7,029.6,23.1,-000.3,0006.27,0013.03,0005.36
2023-08-21 14:27:00,SystemResetWarning,0835.9,5.00,000.00,028.2,025.5,000.0,036.7,029.7,24.4,-000.1,0006.29,0012.37,0005.37
2023-08-21 14:28:00,SystemResetWarning,0835.9,5.01,000.00,028.2,025.8,000.0,036.7,029.8,26.9,-000.3,0006.30,0012.24,0005.40
2023-08-21 14:29:00,SystemResetWarning,0835.9,4.99,000.00,028.2,026.1,000.0,036.7,029.9,25.8,-000.1,0006.30,0011.84,0005.41
2023-08-21 14:30:00,SystemResetWarning,0835.9,5.00,000.00,028.2,026.4,000.0,036.7,029.9,25.0,0000.3,0006.39,0011.81,0005.44
2023-08-21 14:31:00,SystemResetWarning,0835.9,5.00,000.00,028.3,026.6,000.0,036.7,030.0,22.4,0000.7,0006.49,0012.96,0005.46
2023-08-21 14:32:00,SystemResetWarning,0835.9,5.00,000.00,028.3,026.8,000.0,036.8,030.0,22.4,0001.1,0006.57,0014.22,0005.48
2023-08-21 14:33:00,SystemResetWarning,0835.9,5.00,000.00,028.3,027.0,000.0,036.8,030.1,22.2,0001.3,0006.68,0015.13,0005.51
2023-08-21 14:34:00,SystemResetWarning,0835.9,4.99,000.00,028.4,027.0,000.0,036.8,030.1,22.3,0001.6,0006.78,0015.58,0005.53
2023-08-21 14:35:00,SystemResetWarning,0835.9,4.99,000.00,028.4,025.9,000.0,036.7,029.9,22.4,0001.5,0006.83,0016.96,0005.51
2023-08-21 14:36:00,SystemResetWarning,0835.9,5.01,000.00,028.3,024.5,000.0,036.6,029.7,22.5,0002.1,0006.85,0018.13,0005.51
2023-08-21 14:37:00,SystemResetWarning,0836.0,5.01,000.00,028.2,024.5,000.0,036.5,029.6,22.0,0002.4,0006.86,0018.29,0005.49
2023-08-21 14:38:00,SystemResetWarning,0836.0,5.00,000.00,028.2,024.9,000.0,036.6,029.6,22.7,0002.7,0006.88,0018.88,0005.48
2023-08-21 14:39:00,SystemResetWarning,0836.1,5.00,000.00,028.2,025.2,000.0,036.6,029.6,26.0,0002.9,0006.90,0019.49,0005.46
2023-08-21 14:40:00,SystemResetWarning,0836.1,5.00,000.00,028.2,025.6,000.0,036.6,029.7,27.0,0002.7,0006.88,0018.98,0005.45
2023-08-21 14:41:00,SystemResetWarning,0836.1,5.00,000.00,028.2,025.9,000.0,036.6,029.8,26.7,0002.6,0006.83,0018.74,0005.43
2023-08-21 14:42:00,SystemResetWarning,0836.1,4.99,000.00,028.2,026.2,000.0,036.7,029.8,28.0,0002.2,0006.74,0017.74,0005.41
2023-08-21 14:43:00,SystemResetWarning,0836.1,5.00,000.00,028.2,026.5,000.0,036.7,029.9,26.2,0001.8,0006.64,0016.51,0005.41
2023-08-21 14:44:00,SystemResetWarning,0836.1,5.00,000.00,028.3,026.7,000.0,036.7,030.0,26.3,0002.2,0006.55,0017.01,0005.39
2023-08-21 14:45:00,SystemResetWarning,0836.1,4.99,000.00,028.3,026.9,000.0,036.7,030.0,26.0,0002.0,0006.50,0017.61,0005.38
2023-08-21 14:46:00,SystemResetWarning,0836.1,5.00,000.00,028.3,027.0,000.0,036.7,030.1,26.9,0002.4,0006.44,0016.76,0005.37
2023-08-21 14:47:00,SystemResetWarning,0836.1,4.99,000.00,028.4,026.3,000.0,036.7,030.0,26.5,0002.1,0006.48,0015.93,0005.38
2023-08-21 14:48:00,SystemResetWarning,0836.0,5.01,000.00,028.3,024.8,000.0,036.6,029.7,24.2,0002.0,0006.45,0016.18,0005.37
2023-08-21 14:49:00,SystemResetWarning,0836.0,5.01,000.00,028.2,024.4,000.0,036.5,029.6,24.7,0001.8,0006.38,0016.59,0005.36
2023-08-21 14:50:00,SystemResetWarning,0836.1,5.01,000.00,028.2,024.7,000.0,036.5,029.6,25.4,0002.0,0006.30,0016.94,0005.33
2023-08-21 14:51:00,SystemResetWarning,0836.1,4.99,000.00,028.1,025.1,000.0,036.5,029.6,27.4,0002.7,0006.24,0017.28,0005.29
2023-08-21 14:52:00,SystemResetWarning,0836.1,5.00,000.00,028.1,025.4,000.0,036.6,029.6,26.3,0003.0,0006.18,0017.84,0005.25
2023-08-21 14:53:00,SystemResetWarning,0836.1,5.00,000.00,028.1,025.8,000.0,036.6,029.7,25.4,0003.2,0006.15,0018.36,0005.23
2023-08-21 14:54:00,SystemResetWarning,0836.1,5.00,000.00,028.2,026.1,000.0,036.6,029.8,26.9,0003.3,0006.17,0018.51,0005.21
2023-08-21 14:55:00,SystemResetWarning,0836.1,4.99,000.00,028.2,026.4,000.0,036.6,029.9,26.8,0003.2,0006.19,0019.03,0005.21
2023-08-21 14:56:00,SystemResetWarning,0836.1,4.99,000.00,028.2,026.6,000.0,036.6,029.9,25.8,0003.4,0006.14,0017.99,0005.20
2023-08-21 14:57:00,SystemResetWarning,0836.1,5.00,000.00,028.3,026.8,000.0,036.7,030.0,25.5,0003.2,0006.12,0017.54,0005.20
2023-08-21 14:58:00,SystemResetWarning,0836.1,5.00,000.00,028.3,026.9,000.0,036.7,030.1,25.8,0003.1,0006.12,0017.26,0005.20
2023-08-21 14:59:00,SystemResetWarning,0836.1,4.99,000.00,028.3,025.9,000.0,036.6,029.8,26.2,0002.7,0006.06,0016.69,0005.22
